sat.trackr.live / text

‹ back to catalog

STARLINK-30151

NORAD 56827 · 2023-079E

PAYLOAD ACTIVE UNKNOWN

§ Identity

Operator
Country
US
Launch date
2023-06-04
Launch site
AFETR
Launch vehicle
Mass (kg)
RCS (m²)

Purposes: comms

External: N2YO · Heavens-Above · Gunter

§ Orbital elements

Epoch: 2026-09-19T22:09:47.301696Z

Period
94.27 min
Inclination
43.0033°
Eccentricity
0.0001461
Mean motion
15.27576529 rev/d
Perigee alt
482.1 km
Apogee alt
484.1 km
Semi-major
6,861.2 km
B*
1.3210e-5
RAAN
90.1258°
Arg perigee
271.6379°
Mean anomaly
88.4305°
Rev number
18,259

§ Raw data

STARLINK-301511 56827U 23079E   26262.92346414  .00000101  00000+0  13210-4 0  99922 56827  43.0033  90.1258 0001461 271.6379  88.4305 15.27576529182597

JSON: /api/v1/satellites/56827 · /tle

For live sub-satellite position, see the globe view (requires WebGL).

§ Visibility from observer

Set your observer location to see the next 7 days of passes ≥ 10°. The values pass through the URL so the page stays shareable.

No JS? Fill the form by hand. The geolocation button needs JavaScript.